BEIDOU M3-S

Last updated on April 2, 2019, 3:15 a.m. UTC

1 41315U 16006A   19091.73971438  .00000018  00000-0  00000+0 0  9997
2 41315  55.1171 151.5685 0003666 251.8985  52.4221  1.86231970 21541
UTC
Height (km)
Latitude
Longitude
Inclination
Orbital Period
UTC large
Height (km)
Speed (km/s)
/
Latitude / Longitude
Inclination (degrees)
Orbital Period (minutes)
Azimuth
Elevation
Range (km)
Doppler Factor
iOS Compass Heading
iOS Angle

Next 30 passes for location: Hong Kong

Rise time Rise Azimuth (degrees) Set time Set Azimuth (degrees) Duration Max altitude (degrees)

No matching passes for this satellites